Weather History for KEYW - November, 2014

Change the Weather History Date:

Sunday, November 23, 2014

  Actual Average Record
Temperature  
Mean Temperature 80 °F 75 °F  
Max Temperature 83 °F 79 °F 86 °F (1948)
Min Temperature 77 °F 71 °F 58 °F (1944)
Degree Days  
Heating Degree Days 0 0  
Month to date heating degree days 0 0  
Since 1 July heating degree days 0 0  
Cooling Degree Days 15 10  
Month to date cooling degree days 205 260  
Year to date cooling degree days 4791 4468  
Growing Degree Days 30 (Base 50)    
Moisture  
Dew Point 79 °F    
Average Humidity 97    
Maximum Humidity 100    
Minimum Humidity 94    
Precipitation  
Precipitation 0.00 in 0.06 in 0.78 in (1881)
Month to date precipitation 0.71 1.76  
Year to date precipitation 34.24 37.07  
Snow  
Snow 0.00 in - - ()
Month to date snowfall 0.0  
Since 1 July snowfall 0.0  
Since 1 September snowfall 0.0  
Snow Depth 0.00 in    
Sea Level Pressure  
Sea Level Pressure 29.96 in    
Wind  
Wind Speed 11 mph (SE)    
Max Wind Speed 16 mph    
Max Gust Speed 21 mph    
Visibility 10 miles    
Events      
T = Trace of Precipitation, MM = Missing Value Source: NWS Daily Summary

Daily Weather History Graph

Daily Weather History Graph

Search for Another Location

Airport or City:

Trip Planner

Search our weather history database for the weather conditions in past years. The results will help you decide how hot, cold, wet, or windy it might be!

Date:

Astronomy

Nov. 23, 2014 Rise Set
Actual Time 6:48 AM EST 5:38 PM EST
Civil Twilight 6:24 AM EST 6:02 PM EST
Nautical Twilight 5:56 AM EST 6:30 PM EST
Astronomical Twilight 5:28 AM EST 6:57 PM EST
Moon 7:44 AM EST (11/23) 6:58 PM EST (11/23)
Length of Visible Light 11h 38m
Length of Day
10h 49m
New Moon, 2% of the Moon is Illuminated
Nov 23
New Moon
Nov 29
First Quarter
Dec 6
Full
Dec 14
Last Quarter
Dec 21
New

Hourly Weather History & Observations

Time (EST) Temp. Heat Index Dew Point Humidity Pressure Visibility Wind Dir Wind Speed Gust Speed Precip Events Conditions
12:53 AM 78.1 °F - 78.1 °F 100% 30.01 in 10.0 mi ESE 16.1 mph - N/A   Scattered Clouds
1:53 AM 78.1 °F - 78.1 °F 100% 30.01 in 10.0 mi ESE 12.7 mph - N/A   Partly Cloudy
2:53 AM 78.1 °F - 78.1 °F 100% 29.99 in 10.0 mi SE 11.5 mph - N/A   Scattered Clouds
3:13 AM 78.1 °F - 78.1 °F 100% 29.99 in 10.0 mi SE 12.7 mph - N/A   Mostly Cloudy
3:24 AM 78.1 °F - 78.1 °F 100% 29.98 in 10.0 mi SE 11.5 mph - N/A   Scattered Clouds
3:53 AM 78.1 °F - 78.1 °F 100% 29.97 in 10.0 mi SE 12.7 mph - N/A   Scattered Clouds
4:53 AM 78.1 °F - 78.1 °F 100% 29.97 in 10.0 mi SE 10.4 mph - N/A   Partly Cloudy
5:24 AM 78.1 °F - 78.1 °F 100% 29.97 in 10.0 mi SE 13.8 mph - N/A   Mostly Cloudy
5:31 AM 78.1 °F - 78.1 °F 100% 29.97 in 10.0 mi SE 12.7 mph - N/A   Scattered Clouds
5:53 AM 78.1 °F - 78.1 °F 100% 29.98 in 10.0 mi SE 13.8 mph - N/A   Partly Cloudy
6:53 AM 78.1 °F - 78.1 °F 100% 29.99 in 10.0 mi SE 15.0 mph - N/A   Partly Cloudy
7:53 AM 79.0 °F - 79.0 °F 100% 30.01 in 10.0 mi SE 13.8 mph - N/A   Partly Cloudy
8:53 AM 80.1 °F 86.7 °F 79.0 °F 96% 30.01 in 10.0 mi SE 15.0 mph - N/A   Clear
9:53 AM 80.1 °F 87.4 °F 80.1 °F 100% 30.01 in 9.0 mi SE 11.5 mph - N/A   Mostly Cloudy
10:07 AM 81.0 °F 89.9 °F 80.1 °F 97% 30.02 in 10.0 mi SE 12.7 mph - N/A   Scattered Clouds
10:53 AM 81.0 °F 90.6 °F 81.0 °F 100% 30.01 in 10.0 mi SE 10.4 mph - N/A   Mostly Cloudy
11:02 AM 82.0 °F 93.7 °F 81.0 °F 97% 30.01 in 10.0 mi SE 10.4 mph - N/A   Scattered Clouds
11:53 AM 82.0 °F 93.7 °F 81.0 °F 97% 29.99 in 10.0 mi SSE 9.2 mph - N/A   Clear
12:53 PM 82.0 °F 92.8 °F 80.1 °F 94% 29.94 in 10.0 mi SSE 11.5 mph - N/A   Clear
1:53 PM 82.0 °F 93.7 °F 81.0 °F 97% 29.91 in 10.0 mi SSE 11.5 mph - N/A   Clear
2:53 PM 82.0 °F 93.7 °F 81.0 °F 97% 29.90 in 10.0 mi SSE 9.2 mph - N/A   Clear
3:53 PM 81.0 °F 90.6 °F 81.0 °F 100% 29.89 in 10.0 mi SE 10.4 mph - N/A   Clear
4:53 PM 81.0 °F 90.6 °F 81.0 °F 100% 29.89 in 10.0 mi SE 8.1 mph - N/A   Partly Cloudy
5:53 PM 80.1 °F 87.4 °F 80.1 °F 100% 29.90 in 10.0 mi SE 8.1 mph - N/A   Clear
6:53 PM 79.0 °F - 79.0 °F 100% 29.92 in 10.0 mi SE 6.9 mph - N/A   Clear
7:53 PM 79.0 °F - 79.0 °F 100% 29.94 in 10.0 mi ESE 6.9 mph - N/A   Mostly Cloudy
8:53 PM 79.0 °F - 79.0 °F 100% 29.95 in 10.0 mi ESE 8.1 mph - N/A   Partly Cloudy
9:53 PM 80.1 °F 87.4 °F 80.1 °F 100% 29.94 in 10.0 mi SE 10.4 mph - N/A   Clear
10:53 PM 80.1 °F 87.4 °F 80.1 °F 100% 29.95 in 9.0 mi SE 9.2 mph - N/A   Clear
11:53 PM 79.0 °F - - N/A% 29.94 in 8.0 mi SE 12.7 mph - N/A   Clear